| time (UTC) | temp F | wind direction | speed MPH | gust MPH | rain 1hr in | rain 24hr in | rain mn in | humidity % | barometer mb |
| 20260510133015 | 69 | 202 | 12.0 | 21.0 | 0.00 | 0.00 | 0.00 | 94 | 1014.1 |
| 20260510132015 | 68 | 202 | 12.0 | 18.0 | 0.00 | 0.00 | 0.00 | 95 | 1014.2 |
| 20260510131115 | 68 | 202 | 11.0 | 18.0 | 0.00 | 0.00 | 0.00 | 97 | 1014.1 |
| 20260510130015 | 67 | 202 | 11.0 | 17.0 | 0.00 | 0.00 | 0.00 | 97 | 1013.9 |
| 20260510125015 | 66 | 202 | 10.0 | 14.0 | 0.00 | 0.00 | 0.00 | 97 | 1013.8 |
| 20260510124015 | 66 | 202 | 9.0 | 14.0 | 0.00 | 0.00 | 0.00 | 97 | 1013.7 |
| 20260510123015 | 66 | 202 | 8.0 | 13.0 | 0.00 | 0.00 | 0.00 | 97 | 1013.5 |
| 20260510122015 | 65 | 202 | 8.0 | 11.0 | 0.00 | 0.00 | 0.00 | 97 | 1013.4 |
| 20260510120015 | 65 | 202 | 7.0 | 12.0 | 0.00 | 0.00 | 0.00 | 97 | 1013.6 |
| 20260510115015 | 66 | 202 | 7.0 | 13.0 | 0.00 | 0.00 | 0.00 | 97 | 1013.3 |
| 20260510114015 | 66 | 202 | 7.0 | 12.0 | 0.00 | 0.00 | 0.00 | 96 | 1013.2 |
| 20260510113018 | 66 | 202 | 7.0 | 13.0 | 0.00 | 0.00 | 0.00 | 96 | 1013.4 |
| 20260510112015 | 66 | 202 | 9.0 | 13.0 | 0.00 | 0.00 | 0.00 | 96 | 1013.3 |
| 20260510111015 | 66 | 202 | 9.0 | 16.0 | 0.00 | 0.00 | 0.00 | 96 | 1013.5 |
| 20260510110115 | 66 | 202 | 9.0 | 13.0 | 0.00 | 0.00 | 0.00 | 96 | 1013.6 |
| 20260510105015 | 66 | 180 | 8.0 | 12.0 | 0.00 | 0.00 | 0.00 | 95 | 1013.4 |
| 20260510104016 | 66 | 180 | 7.0 | 14.0 | 0.00 | 0.00 | 0.00 | 95 | 1013.5 |
| 20260510103015 | 67 | 202 | 8.0 | 13.0 | 0.00 | 0.00 | 0.00 | 95 | 1013.4 |
| 20260510102015 | 67 | 180 | 8.0 | 14.0 | 0.00 | 0.00 | 0.00 | 94 | 1013.2 |
| 20260510101016 | 67 | 202 | 8.0 | 13.0 | 0.00 | 0.00 | 0.00 | 94 | 1013.1 |
| 20260510100015 | 67 | 180 | 8.0 | 14.0 | 0.00 | 0.00 | 0.00 | 94 | 1013.1 |
| 20260510095015 | 67 | 180 | 6.0 | 10.0 | 0.00 | 0.00 | 0.00 | 94 | 1013.4 |
| 20260510094136 | 67 | 180 | 7.0 | 11.0 | 0.00 | 0.00 | 0.00 | 93 | 1013.2 |
| 20260510093015 | 67 | 180 | 8.0 | 13.0 | 0.00 | 0.00 | 0.00 | 93 | 1013.2 |
| 20260510091015 | 67 | 180 | 7.0 | 11.0 | 0.00 | 0.00 | 0.00 | 92 | 1013.0 |
| 20260510090016 | 67 | 180 | 6.0 | 11.0 | 0.00 | 0.00 | 0.00 | 92 | 1012.9 |
| 20260510085015 | 67 | 180 | 6.0 | 10.0 | 0.00 | 0.00 | 0.00 | 91 | 1013.1 |
| 20260510084015 | 68 | 180 | 6.0 | 11.0 | 0.00 | 0.00 | 0.00 | 90 | 1013.0 |
| 20260510083016 | 68 | 180 | 6.0 | 11.0 | 0.00 | 0.00 | 0.00 | 90 | 1013.0 |
| 20260510082115 | 68 | 180 | 6.0 | 10.0 | 0.00 | 0.00 | 0.00 | 90 | 1013.0 |
| 20260510081016 | 68 | 157 | 6.0 | 10.0 | 0.00 | 0.00 | 0.00 | 89 | 1013.0 |
| 20260510080015 | 68 | 157 | 6.0 | 12.0 | 0.00 | 0.00 | 0.00 | 89 | 1013.1 |
| 20260510075016 | 69 | 180 | 5.0 | 9.0 | 0.00 | 0.00 | 0.00 | 89 | 1013.1 |
| 20260510074016 | 69 | 157 | 5.0 | 10.0 | 0.00 | 0.00 | 0.00 | 88 | 1013.2 |
| 20260510073015 | 69 | 157 | 5.0 | 10.0 | 0.00 | 0.00 | 0.00 | 88 | 1013.3 |
| 20260510072015 | 69 | 157 | 5.0 | 9.0 | 0.00 | 0.00 | 0.00 | 87 | 1013.2 |
| 20260510071016 | 70 | 180 | 5.0 | 10.0 | 0.00 | 0.00 | 0.00 | 87 | 1013.4 |
| 20260510070015 | 70 | 180 | 5.0 | 9.0 | 0.00 | 0.00 | 0.00 | 87 | 1013.1 |
| 20260510065016 | 70 | 180 | 6.0 | 11.0 | 0.00 | 0.00 | 0.00 | 86 | 1013.2 |
| 20260510064016 | 70 | 180 | 7.0 | 11.0 | 0.00 | 0.00 | 0.00 | 86 | 1013.3 |
| 20260510063015 | 70 | 180 | 7.0 | 11.0 | 0.00 | 0.00 | 0.00 | 86 | 1013.4 |
| 20260510062016 | 71 | 180 | 8.0 | 12.0 | 0.00 | 0.00 | 0.00 | 85 | 1013.4 |
| 20260510061016 | 71 | 180 | 6.0 | 10.0 | 0.00 | 0.00 | 0.00 | 86 | 1013.4 |
| 20260510060016 | 71 | 180 | 6.0 | 12.0 | 0.00 | 0.00 | 0.00 | 85 | 1013.4 |
| 20260510055015 | 71 | 180 | 5.0 | 9.0 | 0.00 | 0.00 | 0.00 | 85 | 1013.3 |
| 20260510054016 | 71 | 180 | 5.0 | 7.0 | 0.00 | 0.00 | 0.00 | 85 | 1013.4 |
| 20260510053116 | 71 | 180 | 5.0 | 10.0 | 0.00 | 0.00 | 0.00 | 84 | 1013.1 |
| 20260510052016 | 71 | 180 | 6.0 | 11.0 | 0.00 | 0.00 | 0.00 | 84 | 1013.5 |
| 20260510050137 | 72 | 180 | 5.0 | 7.0 | 0.00 | 0.00 | 0.00 | 84 | 1013.4 |
| 20260510045115 | 72 | 180 | 4.0 | 7.0 | 0.00 | 0.00 | 0.00 | 83 | 1013.4 |
| 20260510044015 | 72 | 157 | 4.0 | 7.0 | 0.00 | 0.00 | 0.00 | 83 | 1013.4 |
| 20260510043016 | 72 | 157 | 3.0 | 7.0 | 0.00 | 0.00 | 0.00 | 84 | 1013.1 |
| 20260510042116 | 72 | 157 | 3.0 | 6.0 | 0.00 | 0.00 | 0.00 | 83 | 1013.2 |
| 20260510041015 | 71 | 157 | 3.0 | 6.0 | 0.00 | 0.00 | 0.00 | 83 | 1013.0 |
| 20260510040015 | 71 | 135 | 4.0 | 6.0 | 0.00 | 0.00 | 0.00 | 82 | 1012.7 |
| 20260510035016 | 72 | 135 | 4.0 | 8.0 | 0.00 | 0.00 | 0.00 | 81 | 1012.6 |
| 20260510034015 | 72 | 135 | 3.0 | 6.0 | 0.00 | 0.00 | 0.00 | 79 | 1012.5 |
| 20260510033015 | 72 | 135 | 3.0 | 5.0 | 0.00 | 0.00 | 0.00 | 78 | 1012.4 |
| 20260510032015 | 73 | 135 | 3.0 | 6.0 | 0.00 | 0.00 | 0.00 | 76 | 1012.2 |
| 20260510031156 | 74 | 135 | 3.0 | 6.0 | 0.00 | 0.00 | 0.00 | 74 | 1012.1 |
| 20260510030117 | 75 | 135 | 3.0 | 6.0 | 0.00 | 0.00 | 0.00 | 71 | 1012.0 |
| 20260510025017 | 76 | 112 | 4.0 | 8.0 | 0.00 | 0.00 | 0.00 | 68 | 1011.9 |
| 20260510024015 | 77 | 112 | 2.0 | 4.0 | 0.00 | 0.00 | 0.00 | 66 | 1011.9 |
| 20260510023015 | 77 | 112 | 3.0 | 5.0 | 0.00 | 0.00 | 0.00 | 64 | 1011.8 |
| 20260510022016 | 77 | 112 | 4.0 | 6.0 | 0.00 | 0.00 | 0.00 | 63 | 1011.6 |
| 20260510021015 | 78 | 90 | 3.0 | 5.0 | 0.00 | 0.00 | 0.00 | 62 | 1011.5 |
| 20260510020015 | 78 | 90 | 2.0 | 4.0 | 0.00 | 0.00 | 0.00 | 61 | 1011.3 |
| 20260510015015 | 79 | 90 | 2.0 | 3.0 | 0.00 | 0.00 | 0.00 | 60 | 1011.4 |
| 20260510014015 | 80 | 90 | 4.0 | 5.0 | 0.00 | 0.00 | 0.00 | 58 | 1011.2 |
| 20260510013015 | 80 | 90 | 4.0 | 5.0 | 0.00 | 0.00 | 0.00 | 58 | 1011.1 |
| 20260510012015 | 81 | 270 | 2.0 | 3.0 | 0.00 | 0.00 | 0.00 | 57 | 1011.2 |
| 20260510011015 | 83 | 270 | 1.0 | 2.0 | 0.00 | 0.00 | 0.00 | 56 | 1011.2 |
| 20260510010016 | 84 | 0.0 | 1.0 | 0.00 | 0.00 | 0.00 | 57 | 1011.1 | |
| 20260510004015 | 86 | 0.0 | 1.0 | 0.00 | 0.00 | 0.00 | 53 | 1011.0 | |
| 20260510003016 | 86 | 270 | 1.0 | 2.0 | 0.00 | 0.00 | 0.00 | 50 | 1011.0 |
| 20260510001015 | 87 | 270 | 2.0 | 3.0 | 0.00 | 0.00 | 0.00 | 50 | 1011.4 |
| 20260510000015 | 87 | 270 | 2.0 | 4.0 | 0.00 | 0.00 | 0.00 | 51 | 1011.3 |
| 20260509235015 | 87 | 292 | 2.0 | 4.0 | 0.00 | 0.00 | 0.00 | 48 | 1011.2 |
| 20260509234015 | 88 | 292 | 3.0 | 5.0 | 0.00 | 0.00 | 0.00 | 49 | 1011.0 |
| 20260509233015 | 89 | 225 | 2.0 | 4.0 | 0.00 | 0.00 | 0.00 | 46 | 1011.3 |
| 20260509232015 | 88 | 225 | 3.0 | 4.0 | 0.00 | 0.00 | 0.00 | 46 | 1011.3 |
| 20260509231016 | 88 | 225 | 4.0 | 6.0 | 0.00 | 0.00 | 0.00 | 48 | 1011.5 |
| 20260509230016 | 89 | 225 | 3.0 | 5.0 | 0.00 | 0.00 | 0.00 | 48 | 1011.5 |
| 20260509225016 | 88 | 225 | 1.0 | 3.0 | 0.00 | 0.00 | 0.00 | 45 | 1011.5 |
| 20260509224016 | 88 | 225 | 3.0 | 5.0 | 0.00 | 0.00 | 0.00 | 45 | 1011.4 |
| 20260509223016 | 88 | 202 | 2.0 | 5.0 | 0.00 | 0.00 | 0.00 | 44 | 1011.4 |
| 20260509222015 | 88 | 247 | 4.0 | 7.0 | 0.00 | 0.00 | 0.00 | 48 | 1011.5 |
| 20260509221015 | 87 | 292 | 1.0 | 4.0 | 0.00 | 0.00 | 0.00 | 48 | 1011.5 |
| 20260509220016 | 87 | 292 | 3.0 | 6.0 | 0.00 | 0.00 | 0.00 | 52 | 1011.5 |
| 20260509213015 | 86 | 247 | 4.0 | 11.0 | 0.00 | 0.00 | 0.00 | 55 | 1011.6 |
| 20260509212016 | 86 | 270 | 4.0 | 7.0 | 0.00 | 0.00 | 0.00 | 55 | 1011.7 |
| 20260509211016 | 86 | 292 | 4.0 | 11.0 | 0.00 | 0.00 | 0.00 | 54 | 1011.9 |
| 20260509210016 | 86 | 270 | 4.0 | 9.0 | 0.00 | 0.00 | 0.00 | 51 | 1011.9 |
| 20260509205017 | 86 | 225 | 4.0 | 7.0 | 0.00 | 0.00 | 0.00 | 58 | 1012.3 |
| 20260509204015 | 86 | 315 | 2.0 | 4.0 | 0.00 | 0.00 | 0.00 | 57 | 1012.5 |
| 20260509203136 | 86 | 202 | 3.0 | 13.0 | 0.00 | 0.00 | 0.00 | 58 | 1012.9 |
| 20260509202015 | 86 | 247 | 4.0 | 8.0 | 0.00 | 0.00 | 0.00 | 56 | 1012.9 |
| 20260509201016 | 85 | 270 | 4.0 | 9.0 | 0.00 | 0.00 | 0.00 | 58 | 1013.0 |
| 20260509200016 | 85 | 315 | 2.0 | 3.0 | 0.00 | 0.00 | 0.00 | 58 | 1012.9 |
| 20260509195016 | 85 | 270 | 7.0 | 12.0 | 0.00 | 0.00 | 0.00 | 59 | 1012.9 |
| 20260509194015 | 84 | 225 | 4.0 | 9.0 | 0.00 | 0.00 | 0.00 | 61 | 1013.1 |
| 20260509193015 | 85 | 270 | 7.0 | 12.0 | 0.00 | 0.00 | 0.00 | 61 | 1013.1 |
| 20260509192017 | 84 | 247 | 6.0 | 11.0 | 0.00 | 0.00 | 0.00 | 59 | 1013.1 |
| 20260509191017 | 84 | 225 | 7.0 | 12.0 | 0.00 | 0.00 | 0.00 | 61 | 1013.0 |
| 20260509190136 | 83 | 247 | 5.0 | 10.0 | 0.00 | 0.00 | 0.00 | 65 | 1013.2 |
| 20260509185020 | 83 | 247 | 8.0 | 13.0 | 0.00 | 0.00 | 0.00 | 64 | 1013.5 |
| 20260509184021 | 83 | 225 | 7.0 | 13.0 | 0.00 | 0.00 | 0.00 | 70 | 1013.5 |
| 20260509183016 | 82 | 225 | 8.0 | 13.0 | 0.00 | 0.00 | 0.00 | 68 | 1013.7 |
| 20260509182016 | 82 | 225 | 9.0 | 13.0 | 0.00 | 0.00 | 0.00 | 70 | 1013.7 |
| 20260509181016 | 82 | 202 | 7.0 | 13.0 | 0.00 | 0.00 | 0.00 | 72 | 1013.7 |
| 20260509180015 | 81 | 202 | 7.0 | 12.0 | 0.00 | 0.00 | 0.00 | 72 | 1013.8 |
| 20260509174016 | 80 | 247 | 8.0 | 13.0 | 0.00 | 0.00 | 0.00 | 74 | 1014.0 |
| 20260509173017 | 79 | 180 | 6.0 | 12.0 | 0.00 | 0.00 | 0.00 | 76 | 1014.2 |
| 20260509172016 | 79 | 180 | 6.0 | 12.0 | 0.00 | 0.00 | 0.00 | 77 | 1014.1 |
| 20260509171016 | 79 | 157 | 5.0 | 11.0 | 0.00 | 0.00 | 0.00 | 78 | 1014.1 |
| 20260509170016 | 78 | 157 | 6.0 | 12.0 | 0.00 | 0.00 | 0.00 | 78 | 1014.1 |
| 20260509165016 | 78 | 180 | 4.0 | 7.0 | 0.00 | 0.00 | 0.00 | 78 | 1014.2 |
| 20260509164016 | 77 | 180 | 7.0 | 13.0 | 0.00 | 0.00 | 0.00 | 80 | 1014.2 |
| 20260509163016 | 75 | 180 | 4.0 | 10.0 | 0.00 | 0.00 | 0.00 | 85 | 1014.1 |
| 20260509162016 | 75 | 202 | 5.0 | 12.0 | 0.00 | 0.00 | 0.00 | 89 | 1014.2 |
| 20260509161016 | 73 | 225 | 5.0 | 11.0 | 0.00 | 0.00 | 0.00 | 95 | 1014.1 |
| 20260509160016 | 72 | 180 | 6.0 | 12.0 | 0.00 | 0.00 | 0.00 | 100 | 1013.9 |
| 20260509155016 | 71 | 135 | 4.0 | 9.0 | 0.00 | 0.00 | 0.00 | 100 | 1014.0 |
| 20260509154016 | 69 | 270 | 2.0 | 5.0 | 0.00 | 0.00 | 0.00 | 100 | 1013.8 |
| 20260509153136 | 69 | 270 | 1.0 | 4.0 | 0.00 | 0.00 | 0.00 | 100 | 1013.6 |
| 20260509152016 | 68 | 247 | 2.0 | 6.0 | 0.00 | 0.00 | 0.00 | 100 | 1013.4 |
| 20260509151016 | 68 | 225 | 5.0 | 10.0 | 0.00 | 0.00 | 0.00 | 100 | 1013.4 |
| 20260509150016 | 67 | 202 | 5.0 | 10.0 | 0.00 | 0.00 | 0.00 | 100 | 1013.0 |
| 20260509145016 | 66 | 225 | 9.0 | 14.0 | 0.00 | 0.00 | 0.00 | 100 | 1012.9 |
| 20260509144016 | 66 | 202 | 7.0 | 13.0 | 0.00 | 0.00 | 0.00 | 100 | 1012.9 |
| 20260509143016 | 66 | 202 | 5.0 | 10.0 | 0.00 | 0.00 | 0.00 | 100 | 1013.0 |
| 20260509142016 | 66 | 202 | 8.0 | 12.0 | 0.00 | 0.00 | 0.00 | 100 | 1012.9 |
| 20260509141117 | 66 | 202 | 7.0 | 11.0 | 0.00 | 0.00 | 0.00 | 100 | 1013.1 |
| 20260509140016 | 66 | 202 | 8.0 | 13.0 | 0.00 | 0.00 | 0.00 | 100 | 1013.0 |
| 20260509135016 | 65 | 180 | 4.0 | 7.0 | 0.00 | 0.00 | 0.00 | 100 | 1013.1 |